Location: Hausen
(46.7355°N, 8.1685°E)
Time: 01:06:38
(UTC+00:00)

Daily predictions for brighter satellites

Satellite Brightness Start Highest point End
(mag) Time Altitude Azimuth Time Altitude Azimuth Time Altitude Azimuth
Cosmos 1464 Rocket 3.8 00:08:47 67° SSW 00:09:44 87° W 00:16:00 10° N
Cosmos 2333 4.5 00:04:50 10° NW 00:10:14 53° W 00:10:14 53° W
Cosmos 2219 Rocket 2.1 00:05:23 10° NNW 00:11:04 74° WSW 00:11:13 74° SW
Cosmos 1782 Rocket 4.0 00:12:54 58° NNW 00:12:54 58° NNW 00:16:35 10° N
Lacrosse 4 Rocket 2.1 00:13:01 53° NNW 00:13:01 53° NNW 00:16:41 10° NNE
Cosmos 1354 Rocket 3.9 00:16:38 84° S 00:16:49 88° ESE 00:22:11 10° NNE
Cosmos 2322 Rocket 4.3 00:15:51 10° WNW 00:17:43 13° W 00:17:43 13° W
Cosmos 968 Rocket 3.8 00:19:13 52° W 00:19:34 53° WNW 00:24:36 10° NNE
SL-4 R/B 3.8 00:22:19 22° ENE 00:22:19 22° ENE 00:23:49 10° ENE
SL-16 R/B 4.3 00:17:40 10° N 00:22:17 24° NE 00:26:52 10° E
COSMOS 2428 2.7 00:23:31 10° NNW 00:29:10 61° WSW 00:29:11 61° WSW
SL-16 R/B 3.1 00:28:37 29° SE 00:31:39 54° ENE 00:37:44 10° N
BREEZE-M TANK 4.2 00:36:08 22° E 00:36:08 22° E 00:37:52 10° E
Nadezhda 4 Rocket 3.9 00:27:51 10° NNW 00:34:10 77° W 00:35:18 60° SSW
Cosmos 2360 Rocket 4.0 00:30:33 10° WNW 00:33:24 18° W 00:33:24 18° W
CENTAUR R/B 4.4 00:28:48 10° W 00:34:25 29° NNW 00:40:52 10° NE
Cosmos 2034 Rocket 3.9 00:35:41 59° SSW 00:36:53 77° W 00:43:13 10° N
CZ-2D R/B 3.0 00:31:46 10° NNE 00:36:55 40° E 00:38:05 35° SE
USA 267 4.4 00:32:10 10° E 00:38:15 43° NNE 00:44:20 10° NW
Okean 2 Rocket 3.1 00:41:46 79° NNW 00:41:46 79° NNW 00:46:03 10° N
GEOS 3 Rocket 3.5 00:36:33 10° NE 00:42:00 86° SE 00:42:46 67° SSW
Cosmos 1975 4.5 00:45:31 25° WNW 00:45:31 25° WNW 00:48:23 10° NNW
ADEOS II 4.0 00:41:25 10° NE 00:45:12 20° E 00:47:28 15° ESE
Cosmos 1092 Rocket 3.9 00:40:00 10° N 00:46:18 84° E 00:48:01 51° SSE
Cosmos 1975 Rocket 4.4 00:42:24 10° NNW 00:45:36 30° WNW 00:45:36 30° WNW
Cosmos 2297 Rocket 2.7 00:45:36 43° SE 00:46:29 47° ESE 00:51:53 10° NE
Cosmos 2219 3.4 00:45:50 50° SE 00:46:39 55° ESE 00:52:07 10° NE
Cosmos 1980 3.6 00:42:34 10° NNW 00:48:17 85° ENE 00:49:51 50° SSE
Sich 1 Rocket 4.2 00:48:43 45° WNW 00:48:43 45° WNW 00:52:41 10° N
Cosmos 2333 Rocket 3.1 00:43:33 10° NW 00:48:12 34° W 00:48:12 34° W
Helios 1B rocket 3.3 00:45:18 10° N 00:48:49 41° NW 00:48:49 41° NW
Cosmos 1777 Rocket 4.0 00:49:00 61° SSE 00:49:37 67° ESE 00:54:53 10° NNE
Meteor 1-29 4.2 00:49:48 10° N 00:52:12 38° NNW 00:52:12 38° NNW
UNK 4.0 00:52:22 52° ESE 00:53:14 64° ENE 00:57:53 10° N
Cosmos 44 Rocket 3.6 00:50:50 10° NW 00:55:08 54° W 00:55:08 54° W
Cosmos 1300 Rocket 3.7 00:57:53 61° WNW 00:57:53 61° WNW 01:01:56 10° N
Cosmos 2237 Rocket 2.1 00:52:38 10° NNW 00:58:20 87° WSW 00:59:51 51° SSE
DELTA 2 DEB (DPAF) 4.0 01:00:27 84° SW 01:00:32 85° WSW 01:05:01 10° NNW
Okean 1 Rocket 3.5 01:01:02 48° ESE 01:01:26 50° E 01:05:39 10° NNE
Cosmos 1626 4.2 01:00:02 10° NNE 01:03:05 23° ENE 01:04:26 19° ESE
CZ-4C R/B 3.6 01:04:19 56° NNE 01:04:19 56° NNE 01:07:18 10° N
Spot 1 4.2 01:06:48 59° WNW 01:06:48 59° WNW 01:10:26 10° NNW
Cosmos 2151 Rocket 3.7 01:12:29 58° W 01:12:34 58° WNW 01:16:56 10° N
Timation 2 Rocket 4.0 01:14:34 44° SW 01:16:31 67° WNW 01:22:34 10° NNE
Cosmos 1707 4.4 01:14:47 10° NNW 01:17:05 24° WNW 01:17:05 24° WNW
In-Cosmos 22 4.3 01:12:54 10° NNW 01:18:23 54° W 01:19:14 49° SW
Meteor 1-15 Rocket 4.1 01:22:53 48° SSW 01:24:34 86° W 01:30:14 10° N
Cosmos 1805 3.2 01:24:25 73° SE 01:24:35 75° E 01:28:29 10° NNE
SJ 16-02 2.2 01:25:10 34° SE 01:26:12 40° ESE 01:30:22 10° NE
SL-14 R/B 4.4 01:23:06 10° N 01:26:51 40° ENE 01:28:23 27° SE
DNEPR-1 R/B 4.0 01:21:39 10° NW 01:27:35 86° NE 01:31:05 19° SE
ERBS 2.9 01:24:29 10° NW 01:27:44 53° NE 01:30:58 10° ESE
Cosmos 1538 Rocket 4.1 01:30:12 10° NNW 01:35:12 50° WSW 01:35:51 47° SW
Cosmos 2227 Rocket 2.1 01:33:34 45° SSW 01:35:26 88° WNW 01:41:09 10° NNE
Cosmos 1455 Rocket 4.4 01:34:24 23° SE 01:36:28 35° E 01:40:31 10° NNE
Cosmos 1025 Rocket 4.4 01:33:14 10° NW 01:36:08 24° WNW 01:36:08 24° WNW
Resurs 1-4 Rocket 2.2 01:32:33 10° N 01:37:48 65° WNW 01:39:24 43° SW
Cosmos 1674 3.1 01:36:37 10° NNW 01:39:47 45° WNW 01:39:47 45° WNW
Cosmos 1733 3.1 01:42:54 67° S 01:43:22 86° E 01:47:14 10° N
Cosmos 1892 Rocket 3.9 01:39:20 10° N 01:43:47 63° ENE 01:46:08 26° SSE
Cosmos 2279 Rocket 3.9 01:44:46 35° SSW 01:47:32 79° W 01:53:46 10° N
ATLAS 3B R/B 4.4 01:42:18 10° WNW 01:47:37 25° NNW 01:53:02 10° NNE
USA 215 3.3 01:41:42 10° NE 01:48:15 71° SE 01:51:29 32° SW
Cosmos 1461 4.0 01:47:03 30° SSE 01:48:18 37° ESE 01:52:27 10° NE
Cosmos 2026 Rocket 4.4 01:43:30 10° NNW 01:49:13 44° W 01:51:09 34° SW
COBE Rocket 3.6 01:47:34 37° S 01:49:23 81° WSW 01:54:04 10° NNW
Lacrosse 4 Rocket 4.1 01:50:46 10° NW 01:52:05 11° NW 01:53:24 10° NNW
Cosmos 1634 Rocket 4.4 01:50:26 32° SW 01:52:50 47° WNW 01:58:49 10° N
FALCON 9 DEB 4.3 01:50:37 10° NW 01:53:58 44° NNE 01:57:19 10° E
Cosmos 2219 Rocket 4.3 01:52:21 10° WNW 01:52:53 11° W 01:52:53 11° W
SL-24 R/B 4.3 01:53:41 36° S 01:55:38 77° W 02:00:39 10° N
Cosmos 2082 3.7 01:53:29 35° SSW 01:55:59 80° ESE 02:01:38 10° NNE
Cosmos 1340 Rocket 4.1 01:54:19 21° SSE 01:56:25 36° E 02:00:05 10° NNE
SL-4 R/B 1.5 01:58:01 18° WNW 02:00:27 84° NNE 02:03:51 10° ESE
Cosmos 2112 Rocket 4.0 01:55:32 10° NNW 02:00:48 82° ENE 02:06:00 10° SSE
Meteor 1-24 Rocket 3.6 02:00:17 10° NNW 02:05:45 70° W 02:08:55 25° S
CBERS-1 4.0 02:01:32 10° NNE 02:06:40 78° WNW 02:09:09 31° SSW
SL-16 R/B 2.1 02:01:16 10° NNW 02:06:57 69° WSW 02:12:33 10° SSE
Cosmos 1726 4.1 02:04:07 11° SE 02:07:00 25° E 02:10:03 10° NE
Meteor 2-5 Rocket 3.9 02:03:58 10° NNW 02:09:24 50° W 02:11:59 29° SSW
Cosmos 1937 Rocket 4.2 02:06:56 20° S 02:10:24 50° ESE 02:15:32 10° NNE
H-2A R/B 3.9 02:10:33 10° SE 02:14:09 30° ENE 02:17:44 10° N
ARIANE 5 R/B 2.9 02:08:58 10° NNE 02:14:10 61° ESE 02:18:02 18° S
Cosmos 1898 Rocket 3.6 02:11:41 26° S 02:14:42 73° ESE 02:19:55 10° NNE
SL-16 R/B 3.4 02:13:42 25° WSW 02:15:32 29° W 02:20:55 10° NW
NPP 4.4 02:10:55 10° N 02:15:54 39° WNW 02:18:22 25° WSW
CZ-2D R/B 3.1 02:11:59 10° N 02:16:52 34° WNW 02:19:24 23° WSW
IDEFIX/ARIANE 42P 3.5 02:12:03 10° NNE 02:17:00 43° E 02:21:55 10° S
Cosmos 1680 Rocket 3.5 02:13:23 10° NNW 02:18:34 62° WSW 02:22:58 14° S
NOSS 3-1 (C) 3.6 02:17:24 24° SSW 02:20:40 60° ESE 02:26:51 10° NE
USA 267 3.3 02:14:19 10° ESE 02:20:52 85° NNE 02:27:27 10° NW
Cosmos 1544 Rocket 3.7 02:20:01 22° S 02:22:52 76° E 02:27:21 10° NNE
ADEOS II 2.2 02:20:07 10° N 02:25:20 62° WNW 02:28:23 25° SW
Cosmos 1607 4.1 02:19:26 10° NW 02:25:44 56° WSW 02:32:01 10° SSE
Cosmos 990 Rocket 3.9 02:23:20 26° SSW 02:26:22 84° WNW 02:31:36 10° NNE
Cosmos 2263 Rocket 3.3 02:23:54 11° S 02:28:51 38° ESE 02:33:57 10° NE
IRS-1D 3.9 02:24:17 10° N 02:29:07 48° WNW 02:31:54 24° SW
Meteor 1-22 Rocket 4.4 02:27:11 25° SW 02:30:00 50° WNW 02:35:10 10° N
Cosmos 2297 Rocket 3.3 02:27:24 19° WSW 02:30:42 33° NW 02:35:47 10° NNE
Cosmos 2219 4.5 02:27:45 17° W 02:31:07 29° NW 02:35:58 10° N
Okean 1-7 Rocket 3.7 02:28:00 10° NNW 02:32:18 54° W 02:35:04 21° SSW
ERS-1 4.4 02:28:16 10° NNE 02:33:16 89° E 02:36:58 18° SSW
IRS-1C 4.1 02:29:37 10° N 02:34:57 71° WNW 02:38:42 20° SSW
Cosmos 1626 3.3 02:35:11 10° NNW 02:38:17 25° W 02:38:56 24° WSW
Meteor 1-28 Rocket 3.3 02:36:22 20° S 02:38:46 56° W 02:42:32 10° NNW
Cosmos 2266 Rocket 4.1 02:33:02 10° NNW 02:39:15 57° W 02:45:02 12° SSW
Cosmos 1655 Rocket 4.4 02:34:09 10° NNW 02:40:01 43° W 02:44:28 17° SSW
Cosmos 2237 Rocket 3.9 02:38:47 10° WNW 02:41:30 14° W 02:41:37 14° W
Cosmos 1602 Rocket 3.9 02:37:22 10° N 02:41:45 67° E 02:46:03 10° SSE
CZ-4B R/B 4.4 02:38:04 10° N 02:42:17 31° WNW 02:44:51 19° WSW
Cosmos 1470 3.0 02:41:43 24° SW 02:43:50 51° WNW 02:47:45 10° N
CZ-2C R/B 4.4 02:41:24 10° NE 02:45:06 24° E 02:48:48 10° SSE
Cosmos 1603 4.0 02:40:44 10° NNW 02:46:31 73° ENE 02:52:13 10° SSE
SL-08 R/B 3.7 02:43:56 13° S 02:48:06 47° W 02:52:54 10° NNW
USA 229 DEB 3.7 02:48:34 17° SW 02:53:49 85° SE 03:00:45 10° NE
USA 229 3.7 02:48:39 17° SW 02:53:54 84° SE 03:00:48 10° NE
Cosmos 2098 Rocket 4.1 02:49:49 10° NNW 02:54:17 40° W 02:59:34 11° SSW
NOSS 3 (A) 4.3 02:55:50 25° SW 02:57:14 86° NW 03:00:10 10° NE
Nadezhda 2 Rocket 4.5 02:51:02 10° N 02:57:20 89° W 03:03:29 10° S
ERBS 3.6 03:01:20 10° W 03:03:43 19° SW 03:06:05 10° S
Meteor 2-14 Rocket 4.4 02:58:06 10° NNW 03:04:09 70° W 03:10:09 10° S
NOSS 2-3 (C) 3.8 03:01:07 14° SSW 03:04:42 70° SE 03:09:41 10° NE
NOSS 3-1 (A) 3.4 03:00:07 14° SSW 03:04:56 75° SE 03:11:18 10° NE
SJ 16-02 2.8 03:02:10 14° WSW 03:04:56 24° WNW 03:08:33 10° N
CSL-04 DEB 4.4 03:05:44 10° S 03:09:35 57° WSW 03:13:28 10° NNW
MSX 3.9 03:07:17 10° NNE 03:13:06 89° ESE 03:18:52 10° SSW
Cosmos 1943 3.2 03:08:06 10° NNW 03:13:46 85° WSW 03:19:23 10° SSE
PSLV R/B 4.4 03:09:47 10° NNE 03:14:05 52° E 03:18:20 10° S
Cosmos 1455 Rocket 4.4 03:11:32 14° WSW 03:14:23 24° WNW 03:18:02 10° NNW
Cosmos 1626 Rocket 4.0 03:10:31 10° NNW 03:14:36 42° W 03:18:39 10° SSW
Cosmos 1758 4.4 03:13:24 14° SW 03:16:16 29° WNW 03:19:48 10° NNW
Resurs 1-4 Rocket 4.2 03:14:59 10° NW 03:16:37 11° NW 03:18:15 10° WNW
Spot 4 Rocket 4.3 03:12:36 10° N 03:17:39 55° WNW 03:22:40 10° SSW
Meteor 1-21 Rocket 4.3 03:13:00 10° NNW 03:18:27 57° W 03:23:50 10° S
Cosmos 2227 Rocket 4.0 03:16:20 10° W 03:20:20 19° NW 03:24:22 10° N
SeaSat 1 2.6 03:16:50 10° NNE 03:21:48 77° ESE 03:26:44 10° SSW
Landsat 5 3.5 03:20:32 10° S 03:24:20 53° W 03:28:17 10° NNW
CZ-2C R/B 3.0 03:22:01 10° N 03:25:51 54° WNW 03:29:33 10° SSW
CZ-2D R/B 4.2 03:23:39 10° N 03:27:21 34° WNW 03:30:58 10° SW
Cosmos 1461 4.1 03:23:26 10° WSW 03:27:26 34° NW 03:31:38 10° NNE
Cosmos 1048 Rocket 4.1 03:25:18 10° NNW 03:30:28 82° ENE 03:35:38 10° SSE
Cosmos 2227 4.4 03:25:07 10° SW 03:30:51 68° WNW 03:36:38 10° NNE
FALCON 9 DEB 3.6 03:27:42 10° WNW 03:31:00 41° SW 03:34:17 10° SSE
USA 215 3.9 03:24:50 10° NE 03:31:08 51° NNW 03:37:24 10° W
ATLAS CENTAUR R/B 3.2 03:29:06 10° S 03:32:38 27° ESE 03:36:02 10° ENE
Cosmos 1758 Rocket 3.5 03:28:20 10° NNW 03:32:38 72° W 03:36:56 10° S
Cosmos 1340 Rocket 4.4 03:30:02 10° WSW 03:33:00 20° WNW 03:35:58 10° NNW
ATLAS 3B CENTAUR R/B 4.3 03:27:55 10° WSW 03:33:05 15° SSW 03:36:39 10° S
ERS-2 2.5 03:32:09 10° S 03:35:37 41° W 03:39:06 10° NNW
Cosmos 2228 3.2 03:32:40 10° S 03:37:01 79° E 03:41:26 10° NNE
Cosmos 1953 3.3 03:35:35 10° SW 03:39:10 31° WNW 03:42:49 10° N
SL-4 R/B 3.0 03:37:14 10° W 03:39:37 18° SW 03:41:59 10° S
Cosmos 1726 3.5 03:39:07 10° SW 03:42:08 23° WNW 03:45:10 10° NNW
Cosmos 1908 3.4 03:40:23 10° SSW 03:44:13 55° WNW 03:48:05 10° N
Meteor 1-16 Rocket 4.4 03:40:10 10° SSW 03:45:25 55° WNW 03:50:50 10° N
Cosmos 2285 Rocket 4.1 03:40:59 10° SSW 03:47:18 82° WNW 03:53:38 10° NNE
